Starlink 3563

operational
NORAD ID: 51858 Int'l Des: 2022-022 Owner: SPXS Country: US Constellation: starlink
LEOCIRCULAR

Über Starlink 3563

Beschreibung wird geladen...

Live-Position

3D-Globus wird geladen...

Nächste Überflüge

Höhenverlauf

Altitude vs Time

uPlot chart will show altitude changes over time

Zweizeiliger Elementsatz

1 51858U 22022G 26036.64529110 .00000168 00000-0 28667-4 0 9998
2 51858 53.2177 162.9751 0001195 91.1905 268.9225 15.08839574218180
Epoch: 5. Feb. 2026 • Age: 14 hours

Aktueller Status

Höhe 540.5 km
Geschwindigkeit 7.59 km/s
Subsatellitenpunkt 0.86°N, 128.54°E
Startdatum 3. März 2022
Alter 3.9 years
Typ internet

Technische Details

Klassifizierung Payload
Masse 297.00 kg
Trockenmasse 275.00 kg
Gesamtmasse 297.00 kg
Länge 0.20 m
Durchmesser 2.80 m
Spannweite 9.00 m
Form Box + pan
Hersteller SPXS
Bus-Typ Starlink
Phasenstatus In Orbit
Besitzer/Staat SPXS/US

Große Konstellationen

Loading constellations...